Regional Weather Roundup
Issued by NWS

Home | Current Version | Previous Version | Graphics & Text | Print | Product List | Glossary Off
Versions: 1 2 3 4 5 6 7 8 9 10 11 12 13 14 15 16 17 18 19 20 21 22 23 24 25 26 27 28 29 30 31 32 33 34 35 36 37 38 39 40 41 42 43 44 45 46 47 48 49 50

000
ASUS43 KDMX 251307
RWRIA

WEATHER ROUNDUP FOR IOWA
NATIONAL WEATHER SERVICE DES MOINES IA
800 AM CDT FRI JUL 25 2014

NOTE: "FAIR" INDICATES FEW OR NO CLOUDS BELOW 12,000 FEET WITH NO
SIGNIFICANT WEATHER AND/OR OBSTRUCTIONS TO VISIBILITY.

* - THESE STATIONS ARE NOT NWS STATIONS...THUS NOT UNDER NWS
QUALITY CONTROL.  THEY ALSO DO NOT REPORT WEATHER SUCH
AS PRECIPITATION OR FOG.

IAZ001>003-012>014-020>022-031>034-043>046-251400-
   NORTHWEST IOWA

CITY           SKY/WX    TMP DP  RH WIND       PRES   REMARKS
CARROLL *      CLOUDY    64  59  82 SE18G28   29.88S
CHEROKEE *     CLOUDY    64  61  88 SE13G22   29.87R
DENISON *      MOSUNNY   66  61  82 SE15G24   29.83S
LE MARS *      CLOUDY    66  61  82 SE17G26   29.81F
ORANGE CITY *  MOSUNNY   68  61  77 SE13G23   29.83F
SHELDON *      CLOUDY    66  61  82 SE20G31   29.82F
SIOUX CITY     PTSUNNY   68  62  81 SE13      29.80S
SPENCER        CLOUDY    66  60  81 SE14      29.87S
STORM LAKE *   PTSUNNY   64  61  88 SE17G24   29.89R
$$

IAZ055>058-069>071-079>083-090>094-251400-
   SOUTHWEST IOWA

CITY           SKY/WX    TMP DP  RH WIND       PRES   REMARKS
ATLANTIC *     CLOUDY    66  59  77 E9G20     29.85F
AUDUBON *      MOSUNNY   68  63  83 SE10      29.88F
CLARINDA *     MOSUNNY   70  63  78 E8        29.87S
COUNCIL BLFS * SUNNY     70  64  83 SE14G21   29.81R
CRESTON *      CLOUDY    66  59  77 E16G22    29.90F
HARLAN  *      PTSUNNY   68  61  77 SE18G24   29.88S
LAMONI         PTSUNNY   66  57  72 E7        29.91F
RED OAK *      PTSUNNY   70  63  78 E14       29.84F
SHENANDOAH *   SUNNY     72  64  78 E8        29.83R
$$

IAZ047>049-059>061-072>074-084-251400-
   CENTRAL IOWA

CITY           SKY/WX    TMP DP  RH WIND       PRES   REMARKS
AMES           CLOUDY    64  60  87 SE16G23   29.93R
ANKENY *       CLOUDY    64  61  88 SE15G24   29.92S
CHARITON *     CLOUDY    64  59  82 E20G25    29.95F
DES MOINES     CLOUDY    66  58  75 SE16G30   29.91F
GRINNELL*      RAIN      61  59  94 SE20      29.95R
KNOXVILLE *    CLOUDY    63  57  82 SE18G26   29.93F
MARSHALLTOWN   LGT RAIN  64  62  93 S18       29.91R
PELLA *        DRIZZLE   63  61  94 SE13      29.96F
PERRY *        CLOUDY    66  59  77 SE12      29.91R
$$

IAZ004>006-015-016-023>025-035-036-251400-
   NORTH CENTRAL IOWA

CITY           SKY/WX    TMP DP  RH WIND       PRES   REMARKS
ALGONA *       CLOUDY    64  63  94 SE7G13    29.93R
CLARION *      CLOUDY    64  63  94 E7        29.95R
ESTHERVILLE    CLOUDY    64  61  90 S26G33    29.82F
FORT DODGE *   CLOUDY    64  61  88 SE9       29.91R
MASON CITY     LGT RAIN  65  64  97 S12       29.93R FOG
FOREST CITY *  LGT RAIN  63  63 100 S18       29.87F
IOWA FALLS *   LGT RAIN  64  63  94 SE9       29.94R
$$

IAZ007>011-017>019-026>030-037>042-050>054-066-251400-
   NORTHEAST IOWA

CITY           SKY/WX    TMP DP  RH WIND       PRES   REMARKS
CEDAR RAPIDS   CLOUDY    61  58  90 S13       29.95F
CHARLES CITY * LGT RAIN  63  63 100 S10G17    29.94R
CLINTON *      CLOUDY    61  57  88 S14       30.04F
DECORAH *      CLOUDY    61  59  94 SE12G26   29.89F
DUBUQUE        CLOUDY    60  58  92 S14G25    29.98F
MONTICELLO *   CLOUDY    63  59  88 S9G16     29.95S
OELWEIN *      CLOUDY    63  61  94 SE5       29.99R
WATERLOO       LGT RAIN  63  61  93 S5        29.94R
$$

IAZ064-065-067-068-078-251400-
   EAST CENTRAL IOWA

CITY           SKY/WX    TMP DP  RH WIND       PRES   REMARKS
DAVENPORT      LGT RAIN  61  59  93 S10       30.03F
IOWA CITY      LGT RAIN  61  61 100 SE14G23   29.98F
MT. PLEASANT * RAIN      61  59  94 E5        30.09R
MUSCATINE *    LGT RAIN  63  59  88 S12       30.02F
QUAD CITIES    LGT RAIN  61  58  90 SE7       30.05F FOG
$$

IAZ062-063-075>077-085>089-095>099-251400-
   SOUTHEAST IOWA

CITY           SKY/WX    TMP DP  RH WIND       PRES   REMARKS
BURLINGTON     LGT RAIN  62  59  90 N3        30.09R
FAIRFIELD *    LGT RAIN  61  59  94 S14       30.03F
FORT MADISON * HVY RAIN  63  61  94 NW8       30.12R
KEOKUK *       CLOUDY    63  59  88 NW6       30.05S
OSKALOOSA *    LGT RAIN  61  59  94 S22       29.98F
CENTERVILLE *  CLOUDY    61  59  94 E13G20    30.01R
OTTUMWA        LGT RAIN  61  59  93 S13G28    29.97F FOG
WASHINGTON *   LGT RAIN  61  61 100 SE15      30.00F
$$

ABBREVIATIONS USED IN REMARKS
   TC - TEMPERATURES IN CELSIUS
  WCI - WIND CHILL INDEX
   HX - HEAT INDEX
  VSB - VISIBILITY
$$



USA.gov is the U.S. government's official web portal to all federal, state and local government web resources and services.